�������l�o���
Date,Time,MP-1(��Sv/h),MP-2(��Sv/h),MP-3(��Sv/h),MP-4(��Sv/h),MP-5(��Sv/h),MP-6(��Sv/h),MP-7(��Sv/h),MP-8(��Sv/h),����,����(m/s),���J
2022/03/26,00:00,0.573,0.842,0.542,1.024,0.724,0.342,0.598,0.565,��,9.2,��
2022/03/26,00:10,0.573,0.846,0.543,1.024,0.726,0.343,0.598,0.565,��,8.4,��
2022/03/26,00:20,0.573,0.848,0.542,1.025,0.725,0.344,0.597,0.565,��,8.4,��
2022/03/26,00:30,0.573,0.842,0.542,1.025,0.725,0.344,0.596,0.565,��,8.4,��
2022/03/26,00:40,0.572,0.845,0.543,1.023,0.724,0.343,0.597,0.565,��,8.4,��
2022/03/26,00:50,0.572,0.843,0.544,1.023,0.726,0.344,0.596,0.563,��,8.6,��
2022/03/26,01:00,0.573,0.845,0.544,1.024,0.725,0.343,0.598,0.566,��,8.1,��
2022/03/26,01:10,0.572,0.844,0.545,1.022,0.724,0.344,0.598,0.565,��,9.1,��
2022/03/26,01:20,0.572,0.845,0.542,1.024,0.724,0.343,0.598,0.567,��,9.3,��
2022/03/26,01:30,0.571,0.844,0.544,1.025,0.727,0.344,0.597,0.565,��,9.5,��
2022/03/26,01:40,0.572,0.847,0.543,1.024,0.728,0.344,0.598,0.565,��,8.4,��
2022/03/26,01:50,0.574,0.845,0.544,1.023,0.726,0.344,0.598,0.565,��,9.1,��
2022/03/26,02:00,0.570,0.845,0.543,1.025,0.725,0.344,0.597,0.564,��,8.3,��
2022/03/26,02:10,0.571,0.848,0.542,1.026,0.725,0.344,0.599,0.566,��,8.0,��
2022/03/26,02:20,0.573,0.848,0.544,1.025,0.724,0.343,0.597,0.566,��쓌,7.8,��
2022/03/26,02:30,0.571,0.847,0.543,1.026,0.724,0.344,0.598,0.566,��쓌,5.9,��
2022/03/26,02:40,0.573,0.847,0.544,1.024,0.724,0.343,0.597,0.565,��,8.3,��
2022/03/26,02:50,0.574,0.846,0.543,1.024,0.726,0.344,0.598,0.566,��,8.4,��
2022/03/26,03:00,0.570,0.847,0.543,1.024,0.726,0.345,0.596,0.566,��,7.0,��
2022/03/26,03:10,0.571,0.845,0.544,1.024,0.724,0.343,0.598,0.565,��,5.9,��
2022/03/26,03:20,0.573,0.847,0.543,1.025,0.726,0.343,0.597,0.566,��,6.3,��
2022/03/26,03:30,0.572,0.847,0.543,1.025,0.725,0.344,0.598,0.566,��,6.4,��
2022/03/26,03:40,0.573,0.847,0.543,1.024,0.726,0.346,0.600,0.566,��,5.6,��
2022/03/26,03:50,0.571,0.847,0.542,1.026,0.725,0.345,0.596,0.566,��,4.8,��
2022/03/26,04:00,0.573,0.847,0.543,1.026,0.726,0.344,0.597,0.567,��,7.0,��
2022/03/26,04:10,0.573,0.847,0.543,1.027,0.727,0.344,0.597,0.567,��,8.3,��
2022/03/26,04:20,0.572,0.848,0.543,1.024,0.726,0.345,0.598,0.566,��,5.5,��
2022/03/26,04:30,0.574,0.844,0.543,1.026,0.726,0.344,0.597,0.566,��,2.6,��
2022/03/26,04:40,0.572,0.845,0.544,1.026,0.727,0.344,0.596,0.566,��,1.9,��
2022/03/26,04:50,0.571,0.844,0.543,1.026,0.727,0.345,0.597,0.567,��쐼,1.2,��
2022/03/26,05:00,0.572,0.847,0.544,1.025,0.725,0.345,0.597,0.566,��쐼,3.7,��
2022/03/26,05:10,0.572,0.846,0.544,1.027,0.728,0.345,0.598,0.567,��,2.9,��
2022/03/26,05:20,0.570,0.846,0.544,1.025,0.725,0.344,0.597,0.566,��쓌,2.6,��
2022/03/26,05:30,0.572,0.847,0.543,1.026,0.725,0.344,0.599,0.566,��쓌,1.9,��
2022/03/26,05:40,0.573,0.845,0.546,1.026,0.725,0.344,0.596,0.566,��,4.6,��
2022/03/26,05:50,0.571,0.847,0.543,1.026,0.727,0.344,0.595,0.567,��,6.1,�L
2022/03/26,06:00,0.571,0.848,0.544,1.026,0.725,0.344,0.597,0.567,��쓌,5.5,��
2022/03/26,06:10,0.570,0.848,0.544,1.024,0.726,0.346,0.597,0.566,��쓌,5.7,��
2022/03/26,06:20,0.572,0.846,0.544,1.025,0.725,0.344,0.598,0.567,��쓌,7.2,��
2022/03/26,06:30,0.572,0.844,0.544,1.025,0.727,0.344,0.599,0.566,��쓌,5.2,��
2022/03/26,06:40,0.573,0.845,0.542,1.026,0.725,0.345,0.597,0.567,��쓌,4.9,��
2022/03/26,06:50,0.573,0.845,0.544,1.026,0.724,0.345,0.600,0.566,�쓌,3.6,�L
2022/03/26,07:00,0.573,0.844,0.542,1.026,0.727,0.346,0.596,0.566,��,7.2,�L
2022/03/26,07:10,0.574,0.847,0.544,1.025,0.726,0.345,0.598,0.568,��,9.4,�L
2022/03/26,07:20,0.574,0.845,0.544,1.026,0.727,0.345,0.597,0.566,��,11.9,�L
2022/03/26,07:30,0.575,0.845,0.545,1.026,0.726,0.344,0.597,0.567,��,11.9,��
2022/03/26,07:40,0.573,0.847,0.544,1.026,0.726,0.345,0.598,0.567,��,12.1,��
2022/03/26,07:50,0.573,0.846,0.544,1.025,0.726,0.347,0.598,0.567,��,14.1,��
2022/03/26,08:00,0.573,0.844,0.544,1.027,0.727,0.347,0.597,0.565,��,13.2,��
2022/03/26,08:10,0.574,0.846,0.544,1.026,0.729,0.346,0.598,0.566,��,13.5,��
2022/03/26,08:20,0.575,0.846,0.545,1.027,0.726,0.345,0.597,0.566,��,15.3,��
2022/03/26,08:30,0.574,0.847,0.545,1.026,0.727,0.345,0.598,0.568,��,14.4,��
2022/03/26,08:40,0.575,0.846,0.546,1.024,0.727,0.345,0.598,0.566,��,12.2,��
2022/03/26,08:50,0.575,0.845,0.546,1.025,0.727,0.346,0.598,0.568,��,11.9,��
2022/03/26,09:00,0.572,0.847,0.547,1.026,0.727,0.346,0.598,0.567,��,10.8,��
2022/03/26,09:10,0.572,0.848,0.545,1.026,0.726,0.345,0.596,0.567,��,11.3,��
2022/03/26,09:20,0.576,0.848,0.546,1.024,0.726,0.346,0.598,0.567,��,11.4,�L
2022/03/26,09:30,0.574,0.847,0.544,1.026,0.725,0.346,0.596,0.567,��,10.3,��
2022/03/26,09:40,0.573,0.847,0.545,1.027,0.724,0.346,0.596,0.567,��,9.2,��
2022/03/26,09:50,0.575,0.847,0.545,1.027,0.725,0.346,0.597,0.566,��,13.0,��
2022/03/26,10:00,0.575,0.847,0.544,1.028,0.725,0.346,0.598,0.567,��,12.4,��
2022/03/26,10:10,0.574,0.846,0.545,1.026,0.723,0.345,0.598,0.568,��,9.5,��
2022/03/26,10:20,0.575,0.846,0.547,1.024,0.725,0.345,0.598,0.570,��,9.8,��
2022/03/26,10:30,0.576,0.848,0.545,1.028,0.726,0.346,0.598,0.567,��쐼,8.9,��
2022/03/26,10:40,0.573,0.847,0.545,1.029,0.726,0.346,0.599,0.566,��,13.2,��
2022/03/26,10:50,0.574,0.845,0.545,1.025,0.725,0.346,0.598,0.567,��,13.0,��
2022/03/26,11:00,0.573,0.847,0.546,1.025,0.725,0.346,0.598,0.566,��,12.4,��
2022/03/26,11:10,0.573,0.845,0.544,1.027,0.725,0.345,0.598,0.566,��쓌,11.6,��
2022/03/26,11:20,0.575,0.845,0.547,1.025,0.725,0.346,0.597,0.566,��,13.1,��
2022/03/26,11:30,0.573,0.847,0.545,1.027,0.724,0.346,0.598,0.565,��,12.4,��
2022/03/26,11:40,0.574,0.845,0.545,1.029,0.723,0.346,0.597,0.565,��,11.3,��
2022/03/26,11:50,0.575,0.846,0.546,1.026,0.724,0.346,0.599,0.567,��,11.9,��
2022/03/26,12:00,0.575,0.848,0.546,1.026,0.725,0.345,0.598,0.566,��,10.5,��
2022/03/26,12:10,0.575,0.847,0.546,1.028,0.724,0.345,0.598,0.566,��,9.2,��
2022/03/26,12:20,0.574,0.847,0.547,1.027,0.725,0.345,0.600,0.567,��,10.2,��
2022/03/26,12:30,0.574,0.847,0.545,1.026,0.723,0.346,0.598,0.567,��,11.1,�L
2022/03/26,12:40,0.575,0.847,0.545,1.028,0.725,0.346,0.598,0.566,��,13.5,�L
2022/03/26,12:50,0.576,0.848,0.546,1.029,0.725,0.346,0.600,0.565,��,13.3,�L
2022/03/26,13:00,0.575,0.847,0.545,1.028,0.726,0.345,0.597,0.565,��,12.7,�L
2022/03/26,13:10,0.577,0.846,0.547,1.028,0.725,0.345,0.599,0.568,��,12.4,�L
2022/03/26,13:20,0.575,0.846,0.546,1.030,0.725,0.344,0.598,0.566,��,12.1,�L
2022/03/26,13:30,0.576,0.848,0.547,1.029,0.724,0.347,0.600,0.569,��,12.1,�L
2022/03/26,13:40,0.576,0.848,0.546,1.029,0.726,0.346,0.600,0.569,��,13.6,�L
2022/03/26,13:50,0.577,0.848,0.548,1.029,0.724,0.347,0.599,0.568,��,11.4,�L
2022/03/26,14:00,0.578,0.848,0.549,1.029,0.722,0.347,0.599,0.569,��,12.1,�L
2022/03/26,14:10,0.576,0.846,0.550,1.029,0.724,0.349,0.599,0.568,��,11.3,�L
2022/03/26,14:20,0.576,0.843,0.548,1.029,0.724,0.349,0.599,0.567,��,13.3,�L
2022/03/26,14:30,0.579,0.844,0.548,1.028,0.722,0.351,0.598,0.565,��,12.4,�L
2022/03/26,14:40,0.579,0.840,0.547,1.026,0.722,0.350,0.598,0.566,��,14.9,�L
2022/03/26,14:50,0.579,0.842,0.547,1.028,0.723,0.352,0.598,0.567,��,12.5,�L
2022/03/26,15:00,0.577,0.841,0.546,1.027,0.723,0.351,0.598,0.567,��,11.6,�L
2022/03/26,15:10,0.576,0.839,0.548,1.027,0.720,0.352,0.598,0.566,��,10.8,�L
2022/03/26,15:20,0.579,0.841,0.546,1.026,0.721,0.351,0.598,0.565,��,13.0,�L
2022/03/26,15:30,0.578,0.838,0.546,1.027,0.719,0.351,0.597,0.566,��쐼,12.2,�L
2022/03/26,15:40,0.577,0.839,0.545,1.027,0.722,0.351,0.597,0.566,��,14.6,�L
2022/03/26,15:50,0.576,0.841,0.547,1.026,0.720,0.351,0.597,0.565,��,12.8,�L
2022/03/26,16:00,0.578,0.838,0.545,1.030,0.720,0.352,0.597,0.565,��,14.1,�L
2022/03/26,16:10,0.576,0.840,0.545,1.026,0.720,0.350,0.598,0.565,��,13.2,�L
2022/03/26,16:20,0.577,0.839,0.545,1.028,0.720,0.350,0.598,0.566,��,14.9,�L
2022/03/26,16:30,0.576,0.839,0.545,1.026,0.719,0.351,0.597,0.566,��,14.1,�L
2022/03/26,16:40,0.575,0.836,0.545,1.024,0.718,0.350,0.597,0.566,-,CALM,�L
2022/03/26,16:50,0.575,0.836,0.544,1.026,0.718,0.353,0.596,0.565,��,12.2,�L
2022/03/26,17:00,0.574,0.835,0.543,1.026,0.716,0.351,0.596,0.566,��,14.4,�L
2022/03/26,17:10,0.574,0.833,0.543,1.025,0.716,0.349,0.595,0.565,��,14.1,�L
2022/03/26,17:20,0.575,0.833,0.543,1.021,0.713,0.351,0.595,0.565,��,18.8,�L
2022/03/26,17:30,0.572,0.833,0.542,1.021,0.713,0.350,0.594,0.565,-,CALM,�L
2022/03/26,17:40,0.574,0.830,0.542,1.022,0.711,0.349,0.593,0.564,��,16.9,�L
2022/03/26,17:50,0.572,0.828,0.540,1.020,0.709,0.349,0.594,0.563,��,14.9,�L
2022/03/26,18:00,0.572,0.827,0.542,1.019,0.710,0.348,0.596,0.562,��쓌,12.7,�L
2022/03/26,18:10,0.571,0.828,0.541,1.018,0.711,0.352,0.594,0.565,-,CALM,�L
2022/03/26,18:20,0.570,0.830,0.543,1.018,0.711,0.350,0.593,0.564,��,15.7,�L
2022/03/26,18:30,0.573,0.829,0.544,1.021,0.712,0.350,0.595,0.563,��,20.2,�L
2022/03/26,18:40,0.571,0.828,0.543,1.021,0.710,0.350,0.594,0.563,-,CALM,�L
2022/03/26,18:50,0.572,0.829,0.542,1.020,0.709,0.349,0.594,0.561,��,15.8,�L
2022/03/26,19:00,0.572,0.828,0.541,1.018,0.711,0.349,0.593,0.565,��,11.4,�L
2022/03/26,19:10,0.572,0.829,0.541,1.018,0.711,0.347,0.595,0.564,��,12.7,�L
2022/03/26,19:20,0.570,0.827,0.542,1.016,0.712,0.349,0.594,0.563,��,13.0,�L
2022/03/26,19:30,0.569,0.826,0.542,1.017,0.711,0.349,0.594,0.564,��,10.4,�L
2022/03/26,19:40,0.569,0.829,0.539,1.018,0.711,0.348,0.593,0.562,��,12.2,�L
2022/03/26,19:50,0.569,0.828,0.538,1.018,0.710,0.347,0.593,0.564,��,12.4,�L
2022/03/26,20:00,0.569,0.826,0.540,1.018,0.713,0.348,0.594,0.565,��,12.4,�L
2022/03/26,20:10,0.570,0.827,0.538,1.019,0.712,0.348,0.593,0.564,��,11.6,�L
2022/03/26,20:20,0.567,0.828,0.540,1.019,0.710,0.347,0.594,0.565,��,11.6,�L
2022/03/26,20:30,0.567,0.827,0.538,1.018,0.710,0.348,0.594,0.564,��,10.2,�L
2022/03/26,20:40,0.566,0.827,0.537,1.017,0.709,0.347,0.595,0.564,��쓌,12.1,�L
2022/03/26,20:50,0.568,0.828,0.538,1.017,0.710,0.347,0.595,0.565,��,10.0,�L
2022/03/26,21:00,0.566,0.826,0.538,1.020,0.709,0.347,0.595,0.564,��,7.8,�L
2022/03/26,21:10,0.568,0.827,0.536,1.017,0.708,0.347,0.595,0.564,��쓌,11.6,�L
2022/03/26,21:20,0.568,0.825,0.536,1.017,0.711,0.348,0.594,0.563,��,11.9,�L
2022/03/26,21:30,0.566,0.826,0.537,1.016,0.710,0.347,0.593,0.565,��,11.7,�L
2022/03/26,21:40,0.569,0.827,0.537,1.017,0.710,0.347,0.596,0.565,��,13.9,�L
2022/03/26,21:50,0.569,0.828,0.538,1.017,0.712,0.347,0.595,0.566,��,13.8,�L
2022/03/26,22:00,0.568,0.826,0.538,1.018,0.711,0.347,0.594,0.566,��쐼,11.6,�L
2022/03/26,22:10,0.570,0.829,0.538,1.016,0.711,0.346,0.594,0.566,��,16.0,�L
2022/03/26,22:20,0.570,0.828,0.538,1.019,0.709,0.346,0.595,0.565,��,13.0,�L
2022/03/26,22:30,0.568,0.830,0.537,1.018,0.711,0.347,0.595,0.564,��,13.6,�L
2022/03/26,22:40,0.568,0.825,0.537,1.020,0.711,0.346,0.596,0.565,��,14.9,�L
2022/03/26,22:50,0.568,0.829,0.538,1.018,0.711,0.346,0.596,0.565,��,14.4,��
2022/03/26,23:00,0.570,0.828,0.539,1.018,0.712,0.345,0.595,0.565,��,12.1,�L
2022/03/26,23:10,0.568,0.828,0.538,1.018,0.712,0.344,0.595,0.564,��,13.1,�L
2022/03/26,23:20,0.567,0.828,0.538,1.019,0.711,0.345,0.595,0.564,��,12.2,�L
2022/03/26,23:30,0.568,0.828,0.537,1.018,0.711,0.344,0.595,0.564,��,11.3,�L
2022/03/26,23:40,0.569,0.829,0.537,1.019,0.712,0.346,0.596,0.564,��,8.5,�L
2022/03/26,23:50,0.568,0.829,0.538,1.018,0.710,0.345,0.595,0.565,��쓌,10.2,�L
